Location: Marcé
(47.5801°N, 0.3280°W)
Time: 20:42:41
(UTC+01:00)

Tiros 1 despin weight - Pass Details

Date: 14 December 2021
Orbit: 592 x 641 km, 48.2° (Epoch: 16 January)

Event Time Altitude Azimuth Distance (km) Brightness Sun altitude
Rises 08:55:28 0° 192° (SSW) 2,878 ? 1.0°
Reaches altitude 10° 08:58:51 10° 166° (SSE) 1,965 ? 1.5°
Maximum altitude 09:01:03 13° 136° (SE) 1,741 ? 1.7°
Drops below altitude 10° 09:03:14 10° 107° (ESE) 1,956 ? 2.0°
Sets 09:06:34 0° 81° (E) 2,852 ? 2.5°
